Find Starlink 33989

NORAD ID: 63929 Int'l Des: 2025-098 Owner: SPXS Country: US Constellation: starlink operational
LEOCIRCULAR

Aktuelle Ansicht

3D-Globus wird geladen...

Über Starlink 33989

Beschreibung wird geladen...

Nächste Überflüge

Passes for default location (London). Set your location on the main map for personalized predictions.

Höhenverlauf

Loading altitude history...

Zweizeiliger Elementsatz

1 63929U 25098D 26150.01919323 .00024005 00000-0 20112-2 0 9994
2 63929 70.0053 69.4478 0002298 238.8364 121.2570 14.98359951 58756
Epoch: 30. Mai 2026 • Age: 14 hours

Aktueller Status

Höhe 573.2 km
Geschwindigkeit 7.58 km/s
Subsatellitenpunkt 15.06°N, 144.23°E
Startdatum 13. Mai 2025
Alter 1 years
Typ internet

Technische Details

Klassifizierung Payload
Masse 575.00 kg
Trockenmasse 530.00 kg
Gesamtmasse 575.00 kg
Länge 0.30 m
Durchmesser 4.10 m
Spannweite 29.00 m
Form Box + pan
Hersteller SPXS
Bus-Typ Starlink V2MO
Phasenstatus In Orbit
Besitzer/Staat SPXS/US

Most Searched